Zurück zum Katalog

HULIANWANG DIGUI-113

AktivKommunikationLEO
NORAD 66923·PAYLOAD·🇨🇳 China

Gestartet Dec 6, 2025 von Wenchang Space Launch Site

Loading…

Nächste Überflüge (nächste 24 Stunden)

TLE

AktuellSource: Space-Track

Epoche: Sep 14, 2026, 04:43 UTC

1 66923U 25285J   26257.19695604 -.00000088  00000-0  76882-4 0  9992
2 66923  50.0088 186.5056 0000187 236.3497 123.7357 13.29327249 37909

Verfolge HULIANWANG DIGUI-113 in Echtzeit mit AllMySat

Download on the App Store